Tracking 19638 objects as of 19-Apr-2019
HD Live streaming from Space Station
objects crossing your sky now

COSMOS 1317 DEB

Track COSMOS 1317 DEB now!


NORAD ID: 14736
Int'l Code: 1981-108G
Perigee: 7,307.2 km
Apogee: 33,129.7 km
Inclination: 71.5 °
Period: 719.2 minutes
Semi major axis: 26589 km
RCS: 3.4522 m2 (large)
Launch date: October 31, 1981
Source: Commonwealth of Independent States (former USSR) (CIS)
Launch site: PLESETSK MISSILE AND SPACE COMPLEX (PKMTR)

Note: This is SATELLITE DEBRIS
aabbcc
Your satellite tracking list
Your tracking list is empty




NASA's NSSDC Master Catalog

Two Line Element Set (TLE):
1 14736U 81108G   19108.89895042  .00000008  00000-0  00000+0 0  9990
2 14736  71.5041 217.1357 4855774  37.9309 327.8737  2.00234362180916
Source of the keplerian elements: AFSPC